Regional Weather Roundup
Issued by NWS

Home | Current Version | Previous Version | Graphics & Text | Print | Product List | Glossary On
Versions: 1 2 3 4 5 6 7 8 9 10 11 12 13 14 15 16 17 18 19 20 21 22 23 24 25 26 27 28 29 30 31 32 33 34 35 36 37 38 39 40 41 42 43 44 45 46 47 48 49 50
000
ASUS44 KMEG 192100
RWRTN
TENNESSEE HOURLY STATE WEATHER ROUNDUP
NATIONAL WEATHER SERVICE MEMPHIS TN
400 PM CDT TUE AUG 19 2014

TNZ002-004-019-021-049-052-054-088>092-192200-
WEST TENNESSEE

CITY           SKY/WX    TMP DP  RH WIND       PRES   REMARKS
MEMPHIS INTL   MOSUNNY   93  72  50 VRB7      29.85F HX 101
NWS MEMPHIS      N/A     92 N/A N/A MISG        N/A
JACKSON        PTSUNNY   89  71  55 SW7       29.85F HX  95
DYERSBURG      PTSUNNY   88  66  48 SW9       29.84F HX  90
UNION CITY     SUNNY     88  75  66 SW6       29.82F HX  97
PARIS          SUNNY     88  75  66 SW10      29.85F HX  97
LEXINGTON      SUNNY     90  72  55 SW9       29.86F HX  96
SAVANNAH       SUNNY     90  72  55 SW7       29.88S HX  96
$$

TNZ008-025-027-028-033-062-065-066-192200-
NORTH MIDDLE TENNESSEE

CITY           SKY/WX    TMP DP  RH WIND       PRES   REMARKS
NASHVILLE      PTSUNNY   89  72  56 SW8       29.86F HX  96
CLARKSVILLE    MOSUNNY   88  73  61 SW9G17    29.84F HX  95
COOKEVILLE     SUNNY     88  72  58 W5        29.89F HX  94
CROSSVILLE     SUNNY     82  67  60 W8        29.94F
$$

TNZ061-075-076-078-094-096-097-192200-
SOUTH MIDDLE TENNESSEE

CITY           SKY/WX    TMP DP  RH WIND       PRES   REMARKS
FAYETTEVILLE   MOSUNNY   84  70  61 W8        29.91S
TULLAHOMA      MOSUNNY   86  72  62 SW6       29.91F HX  92
WINCHESTER     SUNNY     84  72  65 W5        29.90F
COLUMBIA       MOSUNNY   90  73  58 VRB7      29.86F HX  98
SHELBYVILLE    PTSUNNY   90  73  58 W12       29.89F HX  98
$$

TNZ017-018-042-046-047-192200-
NORTHEAST TENNESSEE

CITY           SKY/WX    TMP DP  RH WIND       PRES   REMARKS
TRI CITIES     MOSUNNY   83  65  54 W8        29.90F
ELIZABETHTON   PTCLDY    81  66  61 W7        29.91R
$$

TNZ012-013-036-069-073-074-192200-
CENTRAL EAST TENNESSEE

CITY           SKY/WX    TMP DP  RH WIND       PRES   REMARKS
KNOXVILLE      PTSUNNY   81  70  69 SW7       29.89S
OAK RIDGE      MOSUNNY   85  68  56 VRB6      29.89F
GATLINBURG     MOCLDY    84  68  58 NW6       29.89S
$$

TNZ083-085-099-192200-
SOUTHEAST TENNESSEE

CITY           SKY/WX    TMP DP  RH WIND       PRES   REMARKS
CHATTANOOGA    MOSUNNY   88  68  51 W8        29.88F HX  91
$$

SKY/WX REPORTED AS FAIR MEANS FEW OR NO CLOUDS BELOW
12 THOUSAND FEET.




USA.gov is the U.S. government's official web portal to all federal, state and local government web resources and services.